DateTimeUTC,F1_A11,F1_S11,BsB_S11,BsG_S11,BsR_S11,BbsB_S11,BbsG_S11,BbsR_S11,BaB_A11,BaG_A11,BaR_A11,Tu_S11,T_S11,Uu_S11,U_S11,P_S11,T1_A11
2021-05-12T22:00:00Z,00000200,21000000,,,,,,,0000.49,0000.63,0000.30,18.2,25.1,,00.0,0671.3,31.1
2021-05-12T22:01:00Z,00000200,21000000,,,,,,,-000.20,0000.26,0000.19,18.2,25.1,,00.0,0671.3,31.1
2021-05-12T22:02:00Z,00000200,21000000,,,,,,,0000.22,-000.30,-000.28,18.2,25.1,,00.0,0671.3,31.0
2021-05-12T22:03:00Z,00000200,61000000,,,,,,,0000.52,0000.57,0000.50,18.2,25.1,,00.0,0671.4,31.0
2021-05-12T22:04:00Z,00000200,41000000,0002.29,0000.79,0000.30,0000.39,0000.22,0000.04,0000.18,0000.10,-000.03,18.4,24.9,00.2,00.2,0672.3,31.1
2021-05-12T22:05:00Z,00000200,01000000,0001.45,0000.69,0000.36,0000.94,0000.17,0000.08,0000.33,0000.41,0000.56,18.5,24.8,00.2,00.1,0672.4,31.0
2021-05-12T22:06:00Z,00000200,01000000,0000.42,0000.80,0000.04,0000.40,0000.28,-000.22,0000.25,0000.10,0000.07,18.4,24.8,00.2,00.1,0672.4,31.0
2021-05-12T22:07:00Z,00000200,01000000,0000.90,0000.80,0000.58,-000.38,0000.13,0000.37,0000.68,0000.27,0000.13,18.4,24.8,00.2,00.1,0672.4,31.0
2021-05-12T22:08:00Z,00000200,01000000,0001.35,0000.80,0000.23,0000.45,0000.17,0000.40,-000.02,0000.72,0000.29,18.4,24.8,00.2,00.2,0672.4,31.0
2021-05-12T22:09:00Z,00000200,01000000,0000.49,0000.57,0000.24,0000.34,0000.02,0000.21,0000.29,0000.30,0000.45,18.4,24.8,00.2,00.1,0672.4,31.0
2021-05-12T22:10:00Z,00000200,01000000,-000.08,0000.29,0000.23,0000.49,0000.01,0000.07,0000.35,-000.04,-000.09,18.4,24.8,00.2,00.2,0672.4,31.0
2021-05-12T22:11:00Z,00000200,01000000,-000.02,0000.48,0000.02,0000.19,0000.42,-000.06,0000.45,0000.24,-000.01,18.4,24.8,00.4,00.2,0672.4,31.0
2021-05-12T22:12:00Z,00000200,01000000,0000.69,0000.65,0000.31,-000.27,0000.04,0000.13,0000.07,-000.20,0000.44,18.4,24.8,00.2,00.1,0672.4,31.0
2021-05-12T22:13:00Z,00000200,01000000,0002.02,0001.22,0000.71,0000.31,0000.23,0000.24,-000.45,-000.32,-000.64,18.4,24.8,00.2,00.1,0672.4,31.0
2021-05-12T22:14:00Z,00000200,01000000,0001.53,0001.47,0000.65,0000.39,0000.47,-000.00,0001.11,0001.35,0000.96,18.4,24.8,00.1,00.0,0672.4,31.0
2021-05-12T22:15:00Z,00000200,01000000,0001.65,0001.17,0000.82,0000.75,0000.25,0000.10,0000.86,0000.99,0000.98,18.4,24.7,00.1,00.1,0672.4,31.0
2021-05-12T22:16:00Z,00000200,01000000,0001.04,0000.76,0000.61,0000.01,0000.17,0000.33,0001.46,0000.52,0000.53,18.4,24.7,00.1,00.1,0672.4,31.0
2021-05-12T22:17:00Z,00000200,01000000,0001.24,0000.64,0000.05,0000.46,0000.21,0000.02,0000.07,0000.67,0000.26,18.4,24.7,00.2,00.2,0672.4,31.1
2021-05-12T22:18:00Z,00000200,01000000,0000.85,0000.63,0000.47,-000.21,0000.12,0000.22,0000.61,0000.10,0000.27,18.4,24.7,00.2,00.1,0672.4,31.0
2021-05-12T22:19:00Z,00000200,01000000,0001.30,0000.82,0000.59,0000.15,0000.05,0000.43,0000.04,0000.49,-000.15,18.4,24.7,00.2,00.2,0672.4,31.0
2021-05-12T22:20:00Z,00000200,01000000,0001.96,0001.30,0000.75,0000.45,0000.23,0000.08,0000.61,0000.29,0000.41,18.4,24.7,00.2,00.2,0672.4,31.0
2021-05-12T22:21:00Z,00000200,01000000,0002.04,0001.92,0000.61,0001.01,0000.17,0000.44,0000.38,0000.70,0000.86,18.4,24.7,00.1,00.1,0672.4,31.0
2021-05-12T22:22:00Z,00000200,01000000,0002.28,0001.57,0001.02,0000.49,0000.34,0000.43,0001.02,0000.70,0000.31,18.3,24.7,00.1,00.1,0672.4,31.0
2021-05-12T22:23:00Z,00000200,01000000,0002.55,0001.47,0000.76,0000.52,0000.20,0000.19,0000.71,0000.70,0000.61,18.3,24.7,00.1,00.1,0672.4,31.1
2021-05-12T22:24:00Z,00000200,01000000,0001.74,0001.21,0000.39,0000.18,0000.41,0000.11,0001.12,0000.88,0000.67,18.3,24.7,00.1,00.1,0672.4,31.0
2021-05-12T22:25:00Z,00000200,01000000,0002.23,0001.37,0000.88,-000.22,0000.32,0000.27,0001.34,0000.66,0000.70,18.3,24.7,00.1,00.1,0672.5,31.0
2021-05-12T22:26:00Z,00000200,01000000,0001.81,0001.73,0001.15,0000.42,0000.32,0000.15,0000.26,0000.88,0000.19,18.3,24.7,00.1,00.1,0672.5,31.0
2021-05-12T22:27:00Z,00000200,01000000,0001.62,0001.66,0000.81,0000.13,0000.11,0000.46,0001.22,0000.70,0000.98,18.3,24.7,00.1,00.1,0672.5,31.0
2021-05-12T22:28:00Z,00000200,01010000,0002.54,0001.31,0000.96,0000.08,0000.47,0000.32,0000.93,0001.07,0000.74,18.3,24.7,00.1,00.1,0672.5,31.0
2021-05-12T22:29:00Z,00000200,01000000,0002.36,0001.47,0000.70,0000.39,0000.36,0000.33,0000.83,0000.88,0000.54,18.3,24.7,00.1,00.1,0672.5,31.0
2021-05-12T22:30:00Z,00000200,01000000,0001.75,0001.44,0000.55,0000.57,0000.17,0000.25,0000.70,0000.96,0000.72,18.3,24.7,00.1,00.1,0672.5,31.0
2021-05-12T22:31:00Z,00000200,01000000,0002.09,0001.60,0000.83,0000.86,0000.35,0000.18,0001.10,0000.43,0000.67,18.3,24.7,00.2,00.1,0672.5,31.0
2021-05-12T22:32:00Z,00000200,01000000,0002.34,0001.24,0000.96,0000.70,0000.31,0000.35,0001.01,0000.85,0000.41,18.3,24.6,00.2,00.1,0672.5,31.0
2021-05-12T22:33:00Z,00000200,01000000,0001.43,0001.14,0000.54,0000.05,0000.29,0000.10,0000.34,0000.91,0000.30,18.3,24.6,00.2,00.1,0672.5,31.0
2021-05-12T22:34:00Z,00000200,01000000,0001.00,0000.99,0000.59,0000.58,0000.27,0000.14,0000.71,0000.80,0000.48,18.3,24.6,00.2,00.2,0672.5,31.0
2021-05-12T22:35:00Z,00000200,01000000,0001.11,0000.75,0000.76,-000.19,0000.04,0000.18,0000.72,0000.02,0000.40,18.3,24.6,00.2,00.1,0672.6,31.0
2021-05-12T22:36:00Z,00000200,01000000,0000.54,0000.61,0000.35,0000.11,0000.05,0000.04,0000.35,0000.75,0000.67,18.3,24.6,00.3,00.2,0672.6,31.0
2021-05-12T22:37:00Z,00000200,01000000,0001.37,0000.89,0000.51,0000.48,0000.29,0000.18,0000.23,0000.29,0000.08,18.3,24.6,00.2,00.1,0672.6,31.0
2021-05-12T22:38:00Z,00000200,01000000,0000.53,0000.72,0000.38,-000.06,0000.34,0000.47,0000.49,0000.05,0000.10,18.2,24.6,00.2,00.1,0672.6,31.0
2021-05-12T22:39:00Z,00000200,01000000,0000.98,0000.68,0000.61,0000.28,0000.27,0000.54,0000.47,0000.68,0000.49,18.2,24.6,00.2,00.1,0672.6,31.0
2021-05-12T22:40:00Z,00000200,01000000,0001.11,0000.65,0000.38,0000.44,0000.30,0000.14,0000.42,0000.03,0000.24,18.2,24.6,00.2,00.1,0672.6,31.0
2021-05-12T22:41:00Z,00000200,01000000,0000.30,0000.50,0000.33,0000.45,0000.21,0000.23,0000.31,0000.73,0000.31,18.2,24.6,00.3,00.2,0672.6,31.0
2021-05-12T22:42:00Z,00000200,01000000,0000.34,0000.59,0000.09,-000.47,0000.11,0000.06,0000.28,0000.23,0000.16,18.2,24.6,00.2,00.2,0672.6,31.0
2021-05-12T22:43:00Z,00000200,01000000,0000.78,0000.43,0000.17,0000.44,-000.06,0000.11,0000.08,0000.20,0000.17,18.2,24.6,00.3,00.2,0672.6,31.0
2021-05-12T22:44:00Z,00000200,01000000,0000.51,0000.64,0000.42,0000.61,-000.04,0000.25,0000.37,0000.09,0000.19,18.2,24.6,00.3,00.2,0672.6,31.0
2021-05-12T22:45:00Z,00000200,01000000,0000.67,0000.43,0000.26,0000.11,0000.26,0000.30,0000.06,0000.16,0000.20,18.2,24.6,00.3,00.2,0672.6,31.0
2021-05-12T22:46:00Z,00000200,01000000,0000.46,0000.72,0000.49,0000.05,-000.07,0000.06,0000.34,0000.23,0000.16,18.1,24.6,00.2,00.2,0672.6,31.0
2021-05-12T22:47:00Z,00000200,01000000,0000.08,0000.43,0000.34,0000.04,0000.04,0000.02,0000.19,0000.44,0000.50,18.1,24.5,00.2,00.1,0672.6,31.0
2021-05-12T22:48:00Z,00000200,01000000,0000.46,0000.30,0000.14,0000.26,0000.32,0000.17,0000.68,0000.14,0000.03,18.1,24.5,00.3,00.2,0672.6,31.1
2021-05-12T22:49:00Z,00000200,01000000,0000.58,0000.60,0000.57,-000.20,-000.09,-000.01,0000.36,0000.44,0000.04,18.1,24.5,00.3,00.2,0672.6,31.0
2021-05-12T22:50:00Z,00000200,01000000,-000.00,0000.63,0000.13,0000.64,-000.19,-000.03,0000.02,0000.48,0000.17,18.1,24.5,00.3,00.2,0672.6,31.0
2021-05-12T22:51:00Z,00000200,01000000,0000.52,0000.34,0000.32,0000.22,-000.07,0000.15,0000.57,0000.16,0000.85,18.1,24.5,00.3,00.2,0672.6,31.0
2021-05-12T22:52:00Z,00000200,01000000,0000.07,0000.58,0000.19,0000.26,0000.27,-000.04,0000.31,-000.06,-000.37,18.1,24.5,00.3,00.2,0672.6,31.0
2021-05-12T22:53:00Z,00000200,01000000,0000.64,0000.38,0000.26,0000.24,0000.15,0000.29,0000.32,0000.36,0000.43,18.1,24.5,00.3,00.2,0672.6,31.0
2021-05-12T22:54:00Z,00000200,01000000,0000.69,0000.17,0000.28,0000.18,0000.07,-000.08,0000.04,0000.26,0000.32,18.1,24.5,00.4,00.2,0672.6,31.0
2021-05-12T22:55:00Z,00000200,01000000,0000.34,0000.63,0000.02,0000.09,0000.25,0000.08,0000.60,0000.15,0000.07,18.1,24.5,00.3,00.2,0672.6,31.0
2021-05-12T22:56:00Z,00000200,01000000,0000.30,0000.50,0000.35,0000.20,-000.05,0000.21,0000.06,0000.33,-000.19,18.1,24.5,00.3,00.2,0672.7,31.0
2021-05-12T22:57:00Z,00000200,41000000,,,,,,,-000.17,-000.24,0000.27,18.1,24.5,,00.0,0672.7,31.0
2021-05-12T22:58:00Z,00000200,61000000,,,,,,,0000.03,0000.46,-000.12,17.8,24.7,00.0,00.0,0671.7,31.0
2021-05-12T22:59:00Z,00000200,21000000,,,,,,,0000.06,-000.31,-000.05,17.7,24.8,,00.0,0671.7,31.0
